JCSAT 2A

Last updated on May 23, 2019, 3:05 a.m. UTC

1 27399U 02015A   19142.84968682 -.00000314  00000-0  00000+0 0  9994
2 27399   2.0145  88.1549 0003685 215.1693  18.7695  1.00271382 62725
UTC
Height (km)
Latitude
Longitude
Inclination
Orbital Period
UTC large
Height (km)
Speed (km/s)
/
Latitude / Longitude
Inclination (degrees)
Orbital Period (minutes)
Azimuth
Elevation
Range (km)
Doppler Factor
iOS Compass Heading
iOS Angle

Next 30 passes for location: Hong Kong

Rise time Rise Azimuth (degrees) Set time Set Azimuth (degrees) Duration Max altitude (degrees)

No matching passes for this satellites